Wetterdaten: aktuell Sonntag, 20.10.2019 18:30
Datum Zeit Temp. I. Temp. A. Feuchte I. Feuchte A. Luftdruck Regen Wind Richtung Richtung Taupunkt Windchill Windben Empfang
20.10.2019 18:30 22,3 C 10,2 C 53 % 97 % 1013,2 hPa 0,0 l/m 0,0 km/h (0 Bft) N 0 9,7 C 10,2 C 0,0 km/h (0 Bft) 100,00 %
20.10.2019 18:25 22,2 C 10,2 C 53 % 96 % 1013,3 hPa 0,0 l/m 0,0 km/h (0 Bft) N 0 9,6 C 10,2 C 0,0 km/h (0 Bft) 100,00 %
20.10.2019 18:20 22,2 C 10,4 C 53 % 95 % 1013,3 hPa 0,0 l/m 0,0 km/h (0 Bft) N 0 9,6 C 10,4 C 0,0 km/h (0 Bft) 100,00 %
20.10.2019 18:15 22,2 C 10,6 C 53 % 95 % 1013,3 hPa 0,0 l/m 0,0 km/h (0 Bft) N 0 9,8 C 10,6 C 0,0 km/h (0 Bft) 100,00 %
20.10.2019 18:10 22,2 C 10,8 C 53 % 95 % 1013,3 hPa 0,0 l/m 0,0 km/h (0 Bft) N 0 10,0 C 10,8 C 0,0 km/h (0 Bft) 100,00 %
20.10.2019 18:05 22,1 C 10,9 C 53 % 95 % 1013,3 hPa 0,0 l/m 0,0 km/h (0 Bft) N 0 10,1 C 10,9 C 0,0 km/h (0 Bft) 100,00 %
20.10.2019 18:00 22,1 C 11,0 C 52 % 95 % 1013,1 hPa 0,0 l/m 0,0 km/h (0 Bft) N 0 10,2 C 11,0 C 0,0 km/h (0 Bft) 100,00 %
20.10.2019 17:55 22,0 C 11,2 C 52 % 95 % 1013,2 hPa 0,0 l/m 0,0 km/h (0 Bft) N 0 10,4 C 11,2 C 0,0 km/h (0 Bft) 100,00 %
20.10.2019 17:50 22,0 C 11,3 C 52 % 94 % 1013,1 hPa 0,0 l/m 0,0 km/h (0 Bft) N 0 10,4 C 11,3 C 0,0 km/h (0 Bft) 100,00 %
20.10.2019 17:45 22,1 C 11,5 C 52 % 94 % 1013,1 hPa 0,0 l/m 0,0 km/h (0 Bft) N 0 10,6 C 11,5 C 0,0 km/h (0 Bft) 100,00 %
20.10.2019 17:40 22,2 C 11,6 C 52 % 95 % 1013,1 hPa 0,0 l/m 0,0 km/h (0 Bft) N 0 10,8 C 11,6 C 0,0 km/h (0 Bft) 100,00 %
20.10.2019 17:35 22,2 C 11,7 C 52 % 94 % 1013,1 hPa 0,0 l/m 0,0 km/h (0 Bft) N 0 10,8 C 11,7 C 0,0 km/h (0 Bft) 100,00 %
20.10.2019 17:30 22,3 C 11,8 C 52 % 94 % 1013,1 hPa 0,0 l/m 0,0 km/h (0 Bft) N 0 10,9 C 11,8 C 0,0 km/h (0 Bft) 100,00 %
20.10.2019 17:25 22,4 C 11,9 C 52 % 94 % 1013,2 hPa 0,0 l/m 0,0 km/h (0 Bft) N 0 11,0 C 11,9 C 0,0 km/h (0 Bft) 100,00 %
20.10.2019 17:20 22,5 C 12,0 C 52 % 94 % 1013,2 hPa 0,0 l/m 0,0 km/h (0 Bft) N 0 11,1 C 12,0 C 0,0 km/h (0 Bft) 100,00 %
20.10.2019 17:15 22,6 C 12,1 C 52 % 93 % 1013,1 hPa 0,0 l/m 0,0 km/h (0 Bft) N 0 11,0 C 12,1 C 0,0 km/h (0 Bft) 100,00 %
20.10.2019 17:10 22,7 C 12,2 C 52 % 93 % 1013,2 hPa 0,0 l/m 0,0 km/h (0 Bft) N 0 11,1 C 12,2 C 0,0 km/h (0 Bft) 100,00 %
20.10.2019 17:05 22,9 C 12,2 C 52 % 93 % 1013,2 hPa 0,0 l/m 0,0 km/h (0 Bft) N 0 11,1 C 12,2 C 0,0 km/h (0 Bft) 100,00 %
20.10.2019 17:00 22,9 C 12,4 C 52 % 92 % 1013,1 hPa 0,0 l/m 0,0 km/h (0 Bft) N 0 11,1 C 12,4 C 0,0 km/h (0 Bft) 100,00 %
20.10.2019 16:55 22,9 C 12,6 C 52 % 92 % 1013,0 hPa 0,0 l/m 0,0 km/h (0 Bft) O-SO 112 11,3 C 12,6 C 1,6 km/h (1 Bft) 100,00 %
20.10.2019 16:50 22,9 C 12,7 C 52 % 91 % 1013,0 hPa 0,0 l/m 0,0 km/h (0 Bft) N 0 11,3 C 12,7 C 0,0 km/h (0 Bft) 100,00 %
20.10.2019 16:45 22,9 C 13,0 C 52 % 90 % 1013,1 hPa 0,0 l/m 0,0 km/h (0 Bft) N 0 11,4 C 13,0 C 0,0 km/h (0 Bft) 100,00 %
20.10.2019 16:40 23,0 C 13,2 C 52 % 89 % 1012,9 hPa 0,0 l/m 0,0 km/h (0 Bft) N 0 11,4 C 13,2 C 0,0 km/h (0 Bft) 100,00 %
20.10.2019 16:35 23,0 C 13,6 C 52 % 88 % 1012,9 hPa 0,0 l/m 0,0 km/h (0 Bft) N 0 11,6 C 13,6 C 0,0 km/h (0 Bft) 100,00 %
20.10.2019 16:30 23,0 C 13,8 C 52 % 87 % 1013,0 hPa 0,0 l/m 0,0 km/h (0 Bft) O-SO 112 11,7 C 13,8 C 1,6 km/h (1 Bft) 100,00 %
20.10.2019 16:25 23,0 C 14,1 C 52 % 87 % 1013,0 hPa 0,0 l/m 0,0 km/h (0 Bft) N 0 12,0 C 14,1 C 0,0 km/h (0 Bft) 100,00 %
20.10.2019 16:20 23,0 C 14,3 C 53 % 86 % 1013,0 hPa 0,0 l/m 0,0 km/h (0 Bft) N-NO 22 12,0 C 14,3 C 1,6 km/h (1 Bft) 100,00 %
20.10.2019 16:15 23,0 C 14,6 C 53 % 86 % 1013,0 hPa 0,0 l/m 0,0 km/h (0 Bft) NW 315 12,3 C 14,6 C 4,8 km/h (1 Bft) 100,00 %
20.10.2019 16:10 22,9 C 14,6 C 53 % 86 % 1013,0 hPa 0,0 l/m 0,0 km/h (0 Bft) N 0 12,3 C 14,6 C 0,0 km/h (0 Bft) 100,00 %
20.10.2019 16:05 22,9 C 14,4 C 53 % 87 % 1012,9 hPa 0,0 l/m 0,0 km/h (0 Bft) O-SO 112 12,3 C 14,4 C 1,6 km/h (1 Bft) 100,00 %
20.10.2019 16:00 22,9 C 14,4 C 53 % 87 % 1012,9 hPa 0,0 l/m 0,0 km/h (0 Bft) O 90 12,3 C 14,4 C 3,2 km/h (1 Bft) 100,00 %
20.10.2019 15:55 22,9 C 14,2 C 53 % 88 % 1012,9 hPa 0,0 l/m 0,0 km/h (0 Bft) N 360 12,2 C 14,2 C 1,6 km/h (1 Bft) 100,00 %
20.10.2019 15:50 22,9 C 14,1 C 53 % 87 % 1012,9 hPa 0,0 l/m 0,0 km/h (0 Bft) NW 315 12,0 C 14,1 C 1,6 km/h (1 Bft) 100,00 %
20.10.2019 15:45 22,8 C 14,0 C 53 % 88 % 1012,8 hPa 0,0 l/m 0,0 km/h (0 Bft) O-SO 112 12,0 C 14,0 C 1,6 km/h (1 Bft) 100,00 %
20.10.2019 15:40 22,8 C 13,8 C 53 % 89 % 1012,7 hPa 0,0 l/m 0,0 km/h (0 Bft) O-SO 112 12,0 C 13,8 C 1,6 km/h (1 Bft) 100,00 %
20.10.2019 15:35 22,8 C 13,5 C 53 % 91 % 1012,8 hPa 0,0 l/m 0,0 km/h (0 Bft) N 0 12,1 C 13,5 C 0,0 km/h (0 Bft) 100,00 %
20.10.2019 15:30 22,8 C 13,2 C 53 % 92 % 1012,7 hPa 0,0 l/m 0,0 km/h (0 Bft) N 0 11,9 C 13,2 C 0,0 km/h (0 Bft) 100,00 %
20.10.2019 15:25 22,7 C 13,0 C 53 % 92 % 1012,8 hPa 0,0 l/m 0,0 km/h (0 Bft) NW 315 11,7 C 13,0 C 1,6 km/h (1 Bft) 100,00 %
20.10.2019 15:20 22,7 C 13,0 C 53 % 91 % 1012,8 hPa 0,0 l/m 0,0 km/h (0 Bft) NO 45 11,6 C 13,0 C 3,2 km/h (1 Bft) 100,00 %
20.10.2019 15:15 22,7 C 12,9 C 53 % 92 % 1012,8 hPa 0,0 l/m 0,0 km/h (0 Bft) O 90 11,6 C 12,9 C 4,8 km/h (1 Bft) 100,00 %
20.10.2019 15:10 22,7 C 12,9 C 53 % 92 % 1012,8 hPa 0,0 l/m 0,0 km/h (0 Bft) O-SO 112 11,6 C 12,9 C 3,2 km/h (1 Bft) 100,00 %
20.10.2019 15:05 22,7 C 13,0 C 53 % 92 % 1012,9 hPa 0,0 l/m 0,0 km/h (0 Bft) NW 315 11,7 C 13,0 C 3,2 km/h (1 Bft) 100,00 %
20.10.2019 15:00 22,7 C 13,1 C 53 % 91 % 1012,8 hPa 0,0 l/m 0,0 km/h (0 Bft) O-SO 112 11,7 C 13,1 C 3,2 km/h (1 Bft) 100,00 %
20.10.2019 14:55 22,7 C 13,1 C 53 % 91 % 1013,1 hPa 0,0 l/m 0,0 km/h (0 Bft) W 270 11,7 C 13,1 C 1,6 km/h (1 Bft) 100,00 %
20.10.2019 14:50 22,7 C 13,2 C 53 % 91 % 1013,0 hPa 0,0 l/m 0,0 km/h (0 Bft) W-NW 292 11,8 C 13,2 C 1,6 km/h (1 Bft) 100,00 %
20.10.2019 14:45 22,7 C 13,2 C 53 % 92 % 1013,1 hPa 0,0 l/m 0,0 km/h (0 Bft) SO 135 11,9 C 13,2 C 4,8 km/h (1 Bft) 100,00 %
20.10.2019 14:40 22,7 C 13,1 C 53 % 94 % 1013,0 hPa 0,0 l/m 0,0 km/h (0 Bft) O-SO 112 12,2 C 13,1 C 1,6 km/h (1 Bft) 100,00 %
20.10.2019 14:35 22,7 C 12,9 C 53 % 94 % 1013,0 hPa 0,0 l/m 0,0 km/h (0 Bft) NW 315 12,0 C 12,9 C 4,8 km/h (1 Bft) 100,00 %
20.10.2019 14:30 22,7 C 12,7 C 53 % 95 % 1013,1 hPa 0,0 l/m 0,0 km/h (0 Bft) SW 225 11,9 C 12,7 C 1,6 km/h (1 Bft) 100,00 %
20.10.2019 14:25 22,7 C 12,6 C 53 % 95 % 1013,2 hPa 0,0 l/m 0,0 km/h (0 Bft) NO 45 11,8 C 12,6 C 4,8 km/h (1 Bft) 100,00 %
20.10.2019 14:20 22,7 C 12,4 C 53 % 95 % 1013,2 hPa 0,0 l/m 0,0 km/h (0 Bft) O-SO 112 11,6 C 12,4 C 4,8 km/h (1 Bft) 100,00 %
20.10.2019 14:15 22,6 C 12,4 C 53 % 95 % 1013,3 hPa 0,0 l/m 1,6 km/h (1 Bft) O-SO 112 11,6 C 12,4 C 8,0 km/h (2 Bft) 100,00 %
20.10.2019 14:10 22,6 C 12,2 C 53 % 96 % 1013,2 hPa 0,0 l/m 0,0 km/h (0 Bft) O 90 11,6 C 12,2 C 1,6 km/h (1 Bft) 100,00 %
20.10.2019 14:05 22,6 C 12,1 C 53 % 97 % 1013,2 hPa 0,0 l/m 0,0 km/h (0 Bft) O 90 11,6 C 12,1 C 3,2 km/h (1 Bft) 100,00 %
20.10.2019 14:00 22,6 C 11,9 C 53 % 97 % 1013,2 hPa 0,0 l/m 0,0 km/h (0 Bft) N-NW 337 11,4 C 11,9 C 1,6 km/h (1 Bft) 100,00 %
20.10.2019 13:55 22,6 C 11,8 C 53 % 97 % 1013,3 hPa 0,0 l/m 0,0 km/h (0 Bft) O-SO 112 11,3 C 11,8 C 3,2 km/h (1 Bft) 100,00 %
20.10.2019 13:50 22,6 C 11,7 C 53 % 98 % 1013,3 hPa 0,0 l/m 0,0 km/h (0 Bft) O 90 11,4 C 11,7 C 3,2 km/h (1 Bft) 100,00 %
20.10.2019 13:45 22,6 C 11,4 C 53 % 98 % 1013,2 hPa 0,0 l/m 0,0 km/h (0 Bft) O-SO 112 11,1 C 11,4 C 6,4 km/h (2 Bft) 100,00 %
20.10.2019 13:40 22,6 C 11,3 C 53 % 98 % 1013,2 hPa 0,0 l/m 0,0 km/h (0 Bft) O-SO 112 11,0 C 11,3 C 4,8 km/h (1 Bft) 100,00 %
20.10.2019 13:35 22,6 C 11,1 C 53 % 99 % 1013,2 hPa 0,0 l/m 0,0 km/h (0 Bft) NO 45 10,9 C 11,1 C 4,8 km/h (1 Bft) 100,00 %
20.10.2019 13:30 22,6 C 10,9 C 53 % 98 % 1013,3 hPa 0,0 l/m 0,0 km/h (0 Bft) O 90 10,6 C 10,9 C 3,2 km/h (1 Bft) 100,00 %
20.10.2019 13:25 22,6 C 11,0 C 53 % 99 % 1013,4 hPa 0,0 l/m 0,0 km/h (0 Bft) O-SO 112 10,8 C 11,0 C 4,8 km/h (1 Bft) 100,00 %
20.10.2019 13:20 22,6 C 10,9 C 53 % 98 % 1013,3 hPa 0,0 l/m 0,0 km/h (0 Bft) O-SO 112 10,6 C 10,9 C 4,8 km/h (1 Bft) 100,00 %
20.10.2019 13:15 22,6 C 11,0 C 53 % 98 % 1013,4 hPa 0,0 l/m 0,0 km/h (0 Bft) O 90 10,7 C 11,0 C 3,2 km/h (1 Bft) 100,00 %
20.10.2019 13:10 22,6 C 11,1 C 53 % 99 % 1013,5 hPa 0,0 l/m 0,0 km/h (0 Bft) O-NO 67 10,9 C 11,1 C 1,6 km/h (1 Bft) 100,00 %
20.10.2019 13:05 22,6 C 11,0 C 53 % 99 % 1013,4 hPa 0,0 l/m 0,0 km/h (0 Bft) N 0 10,8 C 11,0 C 0,0 km/h (0 Bft) 100,00 %
20.10.2019 13:00 22,6 C 10,8 C 53 % 99 % 1013,6 hPa 0,0 l/m 0,0 km/h (0 Bft) N 0 10,6 C 10,8 C 0,0 km/h (0 Bft) 100,00 %
20.10.2019 12:55 22,6 C 10,7 C 53 % 99 % 1013,6 hPa 0,0 l/m 0,0 km/h (0 Bft) N 0 10,5 C 10,7 C 0,0 km/h (0 Bft) 100,00 %
20.10.2019 12:50 22,6 C 10,6 C 53 % 99 % 1013,6 hPa 0,0 l/m 0,0 km/h (0 Bft) N 0 10,4 C 10,6 C 0,0 km/h (0 Bft) 100,00 %
20.10.2019 12:45 22,6 C 10,4 C 53 % 99 % 1013,7 hPa 0,0 l/m 0,0 km/h (0 Bft) NO 45 10,2 C 10,4 C 1,6 km/h (1 Bft) 100,00 %
20.10.2019 12:40 22,6 C 10,3 C 53 % 99 % 1013,6 hPa 0,0 l/m 0,0 km/h (0 Bft) NW 315 10,1 C 10,3 C 1,6 km/h (1 Bft) 100,00 %
20.10.2019 12:35 22,5 C 10,3 C 53 % 99 % 1013,8 hPa 0,0 l/m 0,0 km/h (0 Bft) O-SO 112 10,1 C 10,3 C 1,6 km/h (1 Bft) 100,00 %
20.10.2019 12:30 22,5 C 10,4 C 53 % 99 % 1013,7 hPa 0,0 l/m 0,0 km/h (0 Bft) N 0 10,2 C 10,4 C 0,0 km/h (0 Bft) 100,00 %
20.10.2019 12:25 22,5 C 10,3 C 53 % 99 % 1013,6 hPa 0,0 l/m 0,0 km/h (0 Bft) N 0 10,1 C 10,3 C 0,0 km/h (0 Bft) 100,00 %
20.10.2019 12:20 22,5 C 10,2 C 53 % 99 % 1013,7 hPa 0,0 l/m 0,0 km/h (0 Bft) O-SO 112 10,0 C 10,2 C 3,2 km/h (1 Bft) 100,00 %
20.10.2019 12:15 22,5 C 10,2 C 53 % 99 % 1013,6 hPa 0,0 l/m 0,0 km/h (0 Bft) O-SO 112 10,0 C 10,2 C 4,8 km/h (1 Bft) 100,00 %
20.10.2019 12:10 22,5 C 10,2 C 53 % 99 % 1013,5 hPa 0,0 l/m 0,0 km/h (0 Bft) O-NO 67 10,0 C 10,2 C 1,6 km/h (1 Bft) 100,00 %
20.10.2019 12:05 22,5 C 10,2 C 53 % 99 % 1013,5 hPa 0,0 l/m 0,0 km/h (0 Bft) O 90 10,0 C 10,2 C 1,6 km/h (1 Bft) 100,00 %
20.10.2019 12:00 22,5 C 10,2 C 53 % 99 % 1013,6 hPa 0,0 l/m 0,0 km/h (0 Bft) O-SO 112 10,0 C 10,2 C 1,6 km/h (1 Bft) 100,00 %
20.10.2019 11:55 22,4 C 10,3 C 53 % 99 % 1013,7 hPa 0,0 l/m 0,0 km/h (0 Bft) O-SO 112 10,1 C 10,3 C 3,2 km/h (1 Bft) 100,00 %
20.10.2019 11:50 22,4 C 10,2 C 53 % 100 % 1013,7 hPa 0,0 l/m 0,0 km/h (0 Bft) O-SO 112 10,2 C 10,2 C 1,6 km/h (1 Bft) 100,00 %
20.10.2019 11:45 22,4 C 10,1 C 53 % 99 % 1013,7 hPa 0,0 l/m 0,0 km/h (0 Bft) N-NO 22 9,9 C 10,1 C 1,6 km/h (1 Bft) 100,00 %
20.10.2019 11:40 22,4 C 9,9 C 53 % 99 % 1013,7 hPa 0,0 l/m 0,0 km/h (0 Bft) O-SO 112 9,8 C 9,9 C 1,6 km/h (1 Bft) 100,00 %
20.10.2019 11:35 22,4 C 10,0 C 53 % 99 % 1013,8 hPa 0,0 l/m 0,0 km/h (0 Bft) O-SO 112 9,8 C 10,0 C 3,2 km/h (1 Bft) 100,00 %
20.10.2019 11:30 22,4 C 9,9 C 53 % 100 % 1013,9 hPa 0,0 l/m 0,0 km/h (0 Bft) N 0 9,9 C 9,9 C 0,0 km/h (0 Bft) 100,00 %
20.10.2019 11:25 22,4 C 9,8 C 53 % 99 % 1013,9 hPa 0,0 l/m 0,0 km/h (0 Bft) N 0 9,7 C 9,8 C 0,0 km/h (0 Bft) 100,00 %
20.10.2019 11:20 22,3 C 9,8 C 52 % 100 % 1013,9 hPa 0,0 l/m 0,0 km/h (0 Bft) N 0 9,8 C 9,8 C 0,0 km/h (0 Bft) 100,00 %
20.10.2019 11:15 22,3 C 9,6 C 52 % 100 % 1014,0 hPa 0,0 l/m 0,0 km/h (0 Bft) N 0 9,6 C 9,6 C 0,0 km/h (0 Bft) 100,00 %
20.10.2019 11:10 22,3 C 9,6 C 51 % 99 % 1014,0 hPa 0,0 l/m 0,0 km/h (0 Bft) N 0 9,5 C 9,6 C 0,0 km/h (0 Bft) 100,00 %
20.10.2019 11:05 22,3 C 9,6 C 51 % 100 % 1014,0 hPa 0,0 l/m 0,0 km/h (0 Bft) NW 315 9,6 C 9,6 C 1,6 km/h (1 Bft) 100,00 %
20.10.2019 11:00 22,3 C 9,4 C 51 % 100 % 1014,0 hPa 0,0 l/m 0,0 km/h (0 Bft) O-SO 112 9,4 C 9,4 C 1,6 km/h (1 Bft) 100,00 %
20.10.2019 10:55 22,3 C 9,4 C 50 % 100 % 1013,9 hPa 0,0 l/m 0,0 km/h (0 Bft) O-SO 112 9,4 C 9,4 C 1,6 km/h (1 Bft) 100,00 %
20.10.2019 10:50 22,4 C 9,3 C 50 % 99 % 1013,8 hPa 0,0 l/m 0,0 km/h (0 Bft) N 0 9,2 C 9,3 C 0,0 km/h (0 Bft) 100,00 %
20.10.2019 10:45 22,4 C 9,4 C 52 % 100 % 1014,0 hPa 0,0 l/m 0,0 km/h (0 Bft) O-SO 112 9,4 C 9,4 C 3,2 km/h (1 Bft) 100,00 %
20.10.2019 10:40 22,4 C 9,3 C 52 % 100 % 1013,9 hPa 0,0 l/m 0,0 km/h (0 Bft) N 0 9,3 C 9,3 C 0,0 km/h (0 Bft) 100,00 %
20.10.2019 10:35 22,4 C 9,2 C 52 % 100 % 1013,9 hPa 0,0 l/m 0,0 km/h (0 Bft) O 90 9,2 C 9,2 C 1,6 km/h (1 Bft) 100,00 %
20.10.2019 10:30 22,4 C 9,2 C 52 % 99 % 1013,8 hPa 0,0 l/m 0,0 km/h (0 Bft) O-SO 112 9,1 C 9,2 C 1,6 km/h (1 Bft) 100,00 %
20.10.2019 10:25 22,4 C 9,2 C 52 % 100 % 1013,9 hPa 0,0 l/m 0,0 km/h (0 Bft) O-NO 67 9,2 C 9,2 C 3,2 km/h (1 Bft) 100,00 %
20.10.2019 10:20 22,4 C 9,2 C 52 % 99 % 1013,7 hPa 0,0 l/m 0,0 km/h (0 Bft) NO 45 9,1 C 9,2 C 4,8 km/h (1 Bft) 100,00 %
20.10.2019 10:15 22,4 C 9,1 C 52 % 99 % 1013,9 hPa 0,0 l/m 0,0 km/h (0 Bft) O 90 9,0 C 9,1 C 3,2 km/h (1 Bft) 100,00 %
20.10.2019 10:10 22,4 C 9,1 C 52 % 99 % 1013,8 hPa 0,0 l/m 1,6 km/h (1 Bft) O-SO 112 9,0 C 9,1 C 4,8 km/h (1 Bft) 100,00 %
20.10.2019 10:05 22,4 C 9,1 C 52 % 99 % 1013,9 hPa 0,0 l/m 0,0 km/h (0 Bft) O-NO 67 9,0 C 9,1 C 3,2 km/h (1 Bft) 100,00 %
20.10.2019 10:00 22,4 C 9,1 C 52 % 99 % 1013,8 hPa 0,0 l/m 0,0 km/h (0 Bft) O-SO 112 9,0 C 9,1 C 4,8 km/h (1 Bft) 100,00 %
20.10.2019 09:55 22,4 C 9,1 C 52 % 100 % 1013,7 hPa 0,0 l/m 0,0 km/h (0 Bft) NO 45 9,1 C 9,1 C 1,6 km/h (1 Bft) 100,00 %
20.10.2019 09:50 22,4 C 9,1 C 52 % 100 % 1013,8 hPa 0,0 l/m 0,0 km/h (0 Bft) O-SO 112 9,1 C 9,1 C 1,6 km/h (1 Bft) 100,00 %
20.10.2019 09:45 22,4 C 9,0 C 52 % 100 % 1013,9 hPa 0,0 l/m 0,0 km/h (0 Bft) N-NO 22 9,0 C 9,0 C 1,6 km/h (1 Bft) 100,00 %
20.10.2019 09:40 22,4 C 8,9 C 52 % 99 % 1014,0 hPa 0,0 l/m 0,0 km/h (0 Bft) NO 45 8,8 C 8,9 C 3,2 km/h (1 Bft) 100,00 %
20.10.2019 09:35 22,4 C 8,9 C 52 % 99 % 1013,8 hPa 0,0 l/m 0,0 km/h (0 Bft) O 90 8,8 C 8,9 C 1,6 km/h (1 Bft) 100,00 %
20.10.2019 09:30 22,4 C 8,9 C 52 % 100 % 1013,8 hPa 0,0 l/m 0,0 km/h (0 Bft) O 90 8,9 C 8,9 C 1,6 km/h (1 Bft) 100,00 %
20.10.2019 09:25 22,4 C 8,9 C 52 % 100 % 1013,8 hPa 0,0 l/m 0,0 km/h (0 Bft) O 90 8,9 C 8,9 C 1,6 km/h (1 Bft) 100,00 %
20.10.2019 09:20 22,4 C 8,9 C 52 % 100 % 1013,7 hPa 0,0 l/m 0,0 km/h (0 Bft) N 0 8,9 C 8,9 C 0,0 km/h (0 Bft) 100,00 %
20.10.2019 09:15 22,4 C 8,8 C 52 % 100 % 1013,7 hPa 0,0 l/m 0,0 km/h (0 Bft) N 0 8,8 C 8,8 C 0,0 km/h (0 Bft) 100,00 %
20.10.2019 09:10 22,4 C 8,8 C 52 % 100 % 1013,7 hPa 0,0 l/m 0,0 km/h (0 Bft) O-SO 112 8,8 C 8,8 C 3,2 km/h (1 Bft) 100,00 %
20.10.2019 09:05 22,4 C 8,7 C 52 % 100 % 1013,7 hPa 0,0 l/m 0,0 km/h (0 Bft) N 0 8,7 C 8,7 C 0,0 km/h (0 Bft) 100,00 %
20.10.2019 09:00 22,4 C 8,7 C 52 % 99 % 1013,6 hPa 0,0 l/m 0,0 km/h (0 Bft) N 0 8,6 C 8,7 C 0,0 km/h (0 Bft) 100,00 %
20.10.2019 08:55 22,3 C 8,7 C 52 % 100 % 1013,6 hPa 0,0 l/m 0,0 km/h (0 Bft) O-SO 112 8,7 C 8,7 C 1,6 km/h (1 Bft) 100,00 %
20.10.2019 08:50 22,3 C 8,7 C 52 % 100 % 1013,7 hPa 0,0 l/m 0,0 km/h (0 Bft) N 0 8,7 C 8,7 C 0,0 km/h (0 Bft) 100,00 %
20.10.2019 08:45 22,3 C 8,6 C 52 % 100 % 1013,6 hPa 0,0 l/m 0,0 km/h (0 Bft) N 0 8,6 C 8,6 C 0,0 km/h (0 Bft) 100,00 %
20.10.2019 08:40 22,3 C 8,5 C 52 % 99 % 1013,7 hPa 0,0 l/m 0,0 km/h (0 Bft) N 0 8,4 C 8,5 C 0,0 km/h (0 Bft) 100,00 %
20.10.2019 08:35 22,3 C 8,4 C 52 % 99 % 1013,5 hPa 0,0 l/m 0,0 km/h (0 Bft) N 0 8,3 C 8,4 C 0,0 km/h (0 Bft) 100,00 %
20.10.2019 08:30 22,4 C 8,4 C 52 % 99 % 1013,6 hPa 0,0 l/m 0,0 km/h (0 Bft) N 0 8,3 C 8,4 C 0,0 km/h (0 Bft) 100,00 %
20.10.2019 08:25 22,4 C 8,4 C 51 % 99 % 1013,7 hPa 0,0 l/m 0,0 km/h (0 Bft) N 0 8,3 C 8,4 C 0,0 km/h (0 Bft) 100,00 %
20.10.2019 08:20 22,4 C 8,4 C 51 % 99 % 1013,6 hPa 0,0 l/m 0,0 km/h (0 Bft) N 0 8,3 C 8,4 C 0,0 km/h (0 Bft) 100,00 %
20.10.2019 08:15 22,4 C 8,3 C 51 % 99 % 1013,5 hPa 0,0 l/m 0,0 km/h (0 Bft) N 0 8,2 C 8,3 C 0,0 km/h (0 Bft) 100,00 %
20.10.2019 08:10 22,4 C 8,3 C 51 % 99 % 1013,5 hPa 0,0 l/m 0,0 km/h (0 Bft) N 0 8,2 C 8,3 C 0,0 km/h (0 Bft) 100,00 %
20.10.2019 08:05 22,4 C 8,3 C 51 % 99 % 1013,4 hPa 0,0 l/m 0,0 km/h (0 Bft) N 0 8,2 C 8,3 C 0,0 km/h (0 Bft) 100,00 %
20.10.2019 08:00 22,4 C 8,3 C 51 % 99 % 1013,3 hPa 0,0 l/m 0,0 km/h (0 Bft) N 0 8,2 C 8,3 C 0,0 km/h (0 Bft) 100,00 %
20.10.2019 07:55 22,4 C 8,3 C 52 % 99 % 1013,3 hPa 0,0 l/m 0,0 km/h (0 Bft) N 0 8,2 C 8,3 C 0,0 km/h (0 Bft) 100,00 %
20.10.2019 07:50 22,4 C 8,4 C 52 % 99 % 1013,2 hPa 0,0 l/m 0,0 km/h (0 Bft) N 0 8,3 C 8,4 C 0,0 km/h (0 Bft) 100,00 %
20.10.2019 07:45 22,4 C 8,4 C 52 % 99 % 1013,2 hPa 0,0 l/m 0,0 km/h (0 Bft) N 0 8,3 C 8,4 C 0,0 km/h (0 Bft) 100,00 %
20.10.2019 07:40 22,4 C 8,4 C 52 % 99 % 1013,2 hPa 0,0 l/m 0,0 km/h (0 Bft) N 0 8,3 C 8,4 C 0,0 km/h (0 Bft) 100,00 %
20.10.2019 07:35 22,4 C 8,4 C 52 % 99 % 1013,2 hPa 0,0 l/m 0,0 km/h (0 Bft) N 0 8,3 C 8,4 C 0,0 km/h (0 Bft) 100,00 %
20.10.2019 07:30 22,4 C 8,4 C 52 % 99 % 1013,2 hPa 0,0 l/m 0,0 km/h (0 Bft) N 0 8,3 C 8,4 C 0,0 km/h (0 Bft) 100,00 %
20.10.2019 07:25 22,4 C 8,4 C 52 % 99 % 1013,1 hPa 0,0 l/m 0,0 km/h (0 Bft) N 0 8,3 C 8,4 C 0,0 km/h (0 Bft) 100,00 %
20.10.2019 07:20 22,4 C 8,6 C 52 % 99 % 1013,1 hPa 0,0 l/m 0,0 km/h (0 Bft) N 0 8,5 C 8,6 C 0,0 km/h (0 Bft) 100,00 %
20.10.2019 07:15 22,4 C 8,6 C 52 % 99 % 1013,0 hPa 0,0 l/m 0,0 km/h (0 Bft) N 0 8,5 C 8,6 C 0,0 km/h (0 Bft) 100,00 %
20.10.2019 07:10 22,4 C 8,6 C 52 % 99 % 1013,0 hPa 0,0 l/m 0,0 km/h (0 Bft) N 0 8,5 C 8,6 C 0,0 km/h (0 Bft) 100,00 %
20.10.2019 07:05 22,4 C 8,6 C 52 % 99 % 1013,0 hPa 0,0 l/m 0,0 km/h (0 Bft) N 0 8,5 C 8,6 C 0,0 km/h (0 Bft) 100,00 %
20.10.2019 07:00 22,4 C 8,6 C 52 % 99 % 1012,9 hPa 0,0 l/m 0,0 km/h (0 Bft) N 0 8,5 C 8,6 C 0,0 km/h (0 Bft) 100,00 %
20.10.2019 06:55 22,4 C 8,6 C 52 % 99 % 1012,9 hPa 0,0 l/m 0,0 km/h (0 Bft) N 0 8,5 C 8,6 C 0,0 km/h (0 Bft) 100,00 %
20.10.2019 06:50 22,4 C 8,6 C 52 % 99 % 1013,0 hPa 0,0 l/m 0,0 km/h (0 Bft) N 0 8,5 C 8,6 C 0,0 km/h (0 Bft) 100,00 %
20.10.2019 06:45 22,4 C 8,6 C 52 % 99 % 1013,1 hPa 0,0 l/m 0,0 km/h (0 Bft) N 0 8,5 C 8,6 C 0,0 km/h (0 Bft) 100,00 %
20.10.2019 06:40 22,4 C 8,6 C 52 % 99 % 1013,0 hPa 0,0 l/m 0,0 km/h (0 Bft) N 0 8,5 C 8,6 C 0,0 km/h (0 Bft) 100,00 %
20.10.2019 06:35 22,4 C 8,6 C 52 % 99 % 1013,0 hPa 0,0 l/m 0,0 km/h (0 Bft) N 0 8,5 C 8,6 C 0,0 km/h (0 Bft) 100,00 %
20.10.2019 06:30 22,4 C 8,6 C 51 % 99 % 1012,9 hPa 0,0 l/m 0,0 km/h (0 Bft) N 0 8,5 C 8,6 C 0,0 km/h (0 Bft) 100,00 %
20.10.2019 06:25 22,4 C 8,6 C 51 % 99 % 1012,9 hPa 0,0 l/m 0,0 km/h (0 Bft) N 0 8,5 C 8,6 C 0,0 km/h (0 Bft) 100,00 %
20.10.2019 06:20 22,4 C 8,6 C 51 % 99 % 1012,8 hPa 0,0 l/m 0,0 km/h (0 Bft) N 0 8,5 C 8,6 C 0,0 km/h (0 Bft) 100,00 %
20.10.2019 06:15 22,5 C 8,5 C 51 % 99 % 1012,8 hPa 0,0 l/m 0,0 km/h (0 Bft) N 0 8,4 C 8,5 C 0,0 km/h (0 Bft) 100,00 %
20.10.2019 06:10 22,5 C 8,5 C 52 % 99 % 1012,7 hPa 0,0 l/m 0,0 km/h (0 Bft) N 0 8,4 C 8,5 C 0,0 km/h (0 Bft) 100,00 %
20.10.2019 06:05 22,5 C 8,5 C 51 % 99 % 1012,6 hPa 0,0 l/m 0,0 km/h (0 Bft) N 0 8,4 C 8,5 C 0,0 km/h (0 Bft) 100,00 %
20.10.2019 06:00 22,5 C 8,6 C 52 % 99 % 1012,5 hPa 0,0 l/m 0,0 km/h (0 Bft) N 0 8,5 C 8,6 C 0,0 km/h (0 Bft) 100,00 %
20.10.2019 05:55 22,5 C 8,6 C 52 % 99 % 1012,5 hPa 0,0 l/m 0,0 km/h (0 Bft) N 0 8,5 C 8,6 C 0,0 km/h (0 Bft) 100,00 %
20.10.2019 05:50 22,5 C 8,7 C 52 % 99 % 1012,5 hPa 0,0 l/m 0,0 km/h (0 Bft) N 0 8,6 C 8,7 C 0,0 km/h (0 Bft) 100,00 %
20.10.2019 05:45 22,6 C 8,7 C 52 % 99 % 1012,5 hPa 0,0 l/m 0,0 km/h (0 Bft) N 0 8,6 C 8,7 C 0,0 km/h (0 Bft) 100,00 %
20.10.2019 05:40 22,6 C 8,7 C 52 % 99 % 1012,6 hPa 0,0 l/m 0,0 km/h (0 Bft) N 0 8,6 C 8,7 C 0,0 km/h (0 Bft) 100,00 %
20.10.2019 05:35 22,6 C 8,8 C 52 % 99 % 1012,5 hPa 0,0 l/m 0,0 km/h (0 Bft) O-SO 112 8,7 C 8,8 C 1,6 km/h (1 Bft) 100,00 %
20.10.2019 05:30 22,6 C 8,8 C 52 % 99 % 1012,5 hPa 0,0 l/m 0,0 km/h (0 Bft) N 0 8,7 C 8,8 C 0,0 km/h (0 Bft) 100,00 %
20.10.2019 05:25 22,6 C 8,8 C 52 % 99 % 1012,6 hPa 0,0 l/m 0,0 km/h (0 Bft) N 0 8,7 C 8,8 C 0,0 km/h (0 Bft) 100,00 %
20.10.2019 05:20 22,6 C 8,8 C 52 % 99 % 1012,6 hPa 0,0 l/m 0,0 km/h (0 Bft) O-SO 112 8,7 C 8,8 C 1,6 km/h (1 Bft) 100,00 %
20.10.2019 05:15 22,6 C 8,8 C 52 % 99 % 1012,6 hPa 0,0 l/m 0,0 km/h (0 Bft) N 0 8,7 C 8,8 C 0,0 km/h (0 Bft) 100,00 %
20.10.2019 05:10 22,6 C 8,8 C 52 % 99 % 1012,6 hPa 0,0 l/m 0,0 km/h (0 Bft) N 0 8,7 C 8,8 C 0,0 km/h (0 Bft) 100,00 %
20.10.2019 05:05 22,6 C 8,8 C 52 % 99 % 1012,7 hPa 0,0 l/m 0,0 km/h (0 Bft) N 0 8,7 C 8,8 C 0,0 km/h (0 Bft) 100,00 %
20.10.2019 05:00 22,6 C 8,8 C 52 % 99 % 1012,6 hPa 0,0 l/m 0,0 km/h (0 Bft) N 0 8,7 C 8,8 C 0,0 km/h (0 Bft) 100,00 %
20.10.2019 04:55 22,6 C 8,8 C 52 % 99 % 1012,7 hPa 0,0 l/m 0,0 km/h (0 Bft) N 0 8,7 C 8,8 C 0,0 km/h (0 Bft) 100,00 %
20.10.2019 04:50 22,6 C 8,8 C 52 % 99 % 1012,7 hPa 0,0 l/m 0,0 km/h (0 Bft) O-SO 112 8,7 C 8,8 C 1,6 km/h (1 Bft) 100,00 %
20.10.2019 04:45 22,6 C 8,8 C 52 % 99 % 1012,6 hPa 0,0 l/m 0,0 km/h (0 Bft) O-SO 112 8,7 C 8,8 C 1,6 km/h (1 Bft) 100,00 %
20.10.2019 04:40 22,6 C 8,8 C 52 % 99 % 1012,5 hPa 0,0 l/m 0,0 km/h (0 Bft) N 0 8,7 C 8,8 C 0,0 km/h (0 Bft) 100,00 %
20.10.2019 04:35 22,6 C 8,8 C 52 % 99 % 1012,4 hPa 0,0 l/m 0,0 km/h (0 Bft) O-SO 112 8,7 C 8,8 C 1,6 km/h (1 Bft) 100,00 %
20.10.2019 04:30 22,6 C 8,8 C 52 % 99 % 1012,5 hPa 0,0 l/m 0,0 km/h (0 Bft) N 0 8,7 C 8,8 C 0,0 km/h (0 Bft) 100,00 %
20.10.2019 04:25 22,6 C 8,8 C 52 % 99 % 1012,4 hPa 0,0 l/m 0,0 km/h (0 Bft) N 0 8,7 C 8,8 C 0,0 km/h (0 Bft) 100,00 %
20.10.2019 04:20 22,6 C 8,8 C 52 % 99 % 1012,3 hPa 0,0 l/m 0,0 km/h (0 Bft) N 0 8,7 C 8,8 C 0,0 km/h (0 Bft) 100,00 %
20.10.2019 04:15 22,6 C 8,8 C 52 % 99 % 1012,2 hPa 0,0 l/m 0,0 km/h (0 Bft) O 90 8,7 C 8,8 C 1,6 km/h (1 Bft) 100,00 %
20.10.2019 04:10 22,6 C 8,8 C 52 % 99 % 1012,1 hPa 0,0 l/m 0,0 km/h (0 Bft) O 90 8,7 C 8,8 C 1,6 km/h (1 Bft) 100,00 %
20.10.2019 04:05 22,6 C 8,8 C 52 % 99 % 1012,1 hPa 0,0 l/m 0,0 km/h (0 Bft) N 0 8,7 C 8,8 C 0,0 km/h (0 Bft) 100,00 %
20.10.2019 04:00 22,6 C 8,8 C 52 % 99 % 1012,3 hPa 0,0 l/m 0,0 km/h (0 Bft) N 0 8,7 C 8,8 C 0,0 km/h (0 Bft) 100,00 %
20.10.2019 03:55 22,6 C 8,8 C 52 % 99 % 1012,2 hPa 0,0 l/m 0,0 km/h (0 Bft) N 0 8,7 C 8,8 C 0,0 km/h (0 Bft) 100,00 %
20.10.2019 03:50 22,6 C 8,8 C 52 % 99 % 1012,3 hPa 0,0 l/m 0,0 km/h (0 Bft) N 0 8,7 C 8,8 C 0,0 km/h (0 Bft) 100,00 %
20.10.2019 03:45 22,7 C 8,8 C 52 % 99 % 1012,3 hPa 0,0 l/m 0,0 km/h (0 Bft) N 0 8,7 C 8,8 C 0,0 km/h (0 Bft) 100,00 %
20.10.2019 03:40 22,7 C 8,8 C 52 % 99 % 1012,3 hPa 0,0 l/m 0,0 km/h (0 Bft) O-SO 112 8,7 C 8,8 C 1,6 km/h (1 Bft) 100,00 %
20.10.2019 03:35 22,7 C 8,8 C 52 % 99 % 1012,3 hPa 0,0 l/m 0,0 km/h (0 Bft) O-SO 112 8,7 C 8,8 C 3,2 km/h (1 Bft) 100,00 %
20.10.2019 03:30 22,7 C 8,8 C 52 % 99 % 1012,3 hPa 0,0 l/m 0,0 km/h (0 Bft) O-SO 112 8,7 C 8,8 C 1,6 km/h (1 Bft) 100,00 %
20.10.2019 03:25 22,7 C 8,8 C 52 % 99 % 1012,3 hPa 0,0 l/m 0,0 km/h (0 Bft) O-SO 112 8,7 C 8,8 C 1,6 km/h (1 Bft) 100,00 %
20.10.2019 03:20 22,7 C 8,8 C 52 % 99 % 1012,4 hPa 0,0 l/m 0,0 km/h (0 Bft) N 0 8,7 C 8,8 C 0,0 km/h (0 Bft) 100,00 %
20.10.2019 03:15 22,7 C 8,8 C 52 % 99 % 1012,4 hPa 0,0 l/m 0,0 km/h (0 Bft) N 0 8,7 C 8,8 C 0,0 km/h (0 Bft) 100,00 %
20.10.2019 03:10 22,7 C 8,9 C 52 % 99 % 1012,5 hPa 0,0 l/m 0,0 km/h (0 Bft) O-SO 112 8,8 C 8,9 C 1,6 km/h (1 Bft) 100,00 %
20.10.2019 03:05 22,7 C 8,9 C 52 % 99 % 1012,4 hPa 0,0 l/m 0,0 km/h (0 Bft) O-SO 112 8,8 C 8,9 C 1,6 km/h (1 Bft) 100,00 %
20.10.2019 03:00 22,7 C 8,9 C 52 % 99 % 1012,3 hPa 0,0 l/m 0,0 km/h (0 Bft) N 0 8,8 C 8,9 C 0,0 km/h (0 Bft) 100,00 %
20.10.2019 02:55 22,7 C 8,9 C 52 % 99 % 1012,4 hPa 0,0 l/m 0,0 km/h (0 Bft) N 0 8,8 C 8,9 C 0,0 km/h (0 Bft) 100,00 %
20.10.2019 02:50 22,7 C 9,0 C 52 % 99 % 1012,5 hPa 0,0 l/m 0,0 km/h (0 Bft) N 0 8,9 C 9,0 C 0,0 km/h (0 Bft) 100,00 %
20.10.2019 02:45 22,7 C 9,0 C 52 % 99 % 1012,5 hPa 0,0 l/m 0,0 km/h (0 Bft) N 0 8,9 C 9,0 C 0,0 km/h (0 Bft) 100,00 %
20.10.2019 02:40 22,7 C 9,0 C 52 % 99 % 1012,5 hPa 0,0 l/m 0,0 km/h (0 Bft) N 0 8,9 C 9,0 C 0,0 km/h (0 Bft) 100,00 %
20.10.2019 02:35 22,7 C 9,1 C 52 % 99 % 1012,5 hPa 0,0 l/m 0,0 km/h (0 Bft) N 360 9,0 C 9,1 C 1,6 km/h (1 Bft) 100,00 %
20.10.2019 02:30 22,7 C 9,1 C 52 % 99 % 1012,4 hPa 0,0 l/m 0,0 km/h (0 Bft) NO 45 9,0 C 9,1 C 3,2 km/h (1 Bft) 100,00 %
20.10.2019 02:25 22,8 C 9,2 C 52 % 99 % 1012,5 hPa 0,0 l/m 0,0 km/h (0 Bft) N 0 9,1 C 9,2 C 0,0 km/h (0 Bft) 100,00 %
20.10.2019 02:20 22,8 C 9,2 C 52 % 99 % 1012,6 hPa 0,0 l/m 0,0 km/h (0 Bft) O-NO 67 9,1 C 9,2 C 1,6 km/h (1 Bft) 100,00 %
20.10.2019 02:15 22,8 C 9,3 C 52 % 99 % 1012,8 hPa 0,0 l/m 0,0 km/h (0 Bft) O 90 9,2 C 9,3 C 1,6 km/h (1 Bft) 100,00 %
20.10.2019 02:10 22,8 C 9,3 C 52 % 99 % 1012,8 hPa 0,0 l/m 0,0 km/h (0 Bft) N 0 9,2 C 9,3 C 0,0 km/h (0 Bft) 100,00 %
20.10.2019 02:05 22,8 C 9,3 C 52 % 99 % 1012,6 hPa 0,0 l/m 0,0 km/h (0 Bft) O-NO 67 9,2 C 9,3 C 3,2 km/h (1 Bft) 100,00 %
20.10.2019 02:00 22,8 C 9,3 C 52 % 99 % 1012,7 hPa 0,0 l/m 0,0 km/h (0 Bft) O-SO 112 9,2 C 9,3 C 3,2 km/h (1 Bft) 100,00 %
20.10.2019 01:55 22,8 C 9,3 C 52 % 99 % 1012,9 hPa 0,0 l/m 0,0 km/h (0 Bft) N 0 9,2 C 9,3 C 0,0 km/h (0 Bft) 100,00 %
20.10.2019 01:50 22,8 C 9,3 C 52 % 99 % 1012,7 hPa 0,0 l/m 0,0 km/h (0 Bft) N 0 9,2 C 9,3 C 0,0 km/h (0 Bft) 100,00 %
20.10.2019 01:45 22,8 C 9,2 C 52 % 99 % 1012,9 hPa 0,0 l/m 0,0 km/h (0 Bft) N 0 9,1 C 9,2 C 0,0 km/h (0 Bft) 100,00 %
20.10.2019 01:40 22,8 C 9,2 C 52 % 99 % 1013,0 hPa 0,0 l/m 0,0 km/h (0 Bft) O-NO 67 9,1 C 9,2 C 1,6 km/h (1 Bft) 100,00 %
20.10.2019 01:35 22,8 C 9,2 C 52 % 99 % 1013,0 hPa 0,0 l/m 0,0 km/h (0 Bft) N 0 9,1 C 9,2 C 0,0 km/h (0 Bft) 100,00 %
20.10.2019 01:30 22,8 C 9,2 C 52 % 99 % 1012,9 hPa 0,0 l/m 0,0 km/h (0 Bft) N 0 9,1 C 9,2 C 0,0 km/h (0 Bft) 100,00 %
20.10.2019 01:25 22,8 C 9,2 C 52 % 99 % 1012,8 hPa 0,0 l/m 0,0 km/h (0 Bft) N-NO 22 9,1 C 9,2 C 1,6 km/h (1 Bft) 100,00 %
20.10.2019 01:20 22,8 C 9,2 C 52 % 99 % 1012,8 hPa 0,0 l/m 0,0 km/h (0 Bft) N 0 9,1 C 9,2 C 0,0 km/h (0 Bft) 100,00 %
20.10.2019 01:15 22,8 C 9,2 C 52 % 99 % 1012,9 hPa 0,0 l/m 0,0 km/h (0 Bft) N 0 9,1 C 9,2 C 0,0 km/h (0 Bft) 100,00 %
20.10.2019 01:10 22,8 C 9,2 C 52 % 99 % 1012,9 hPa 0,0 l/m 0,0 km/h (0 Bft) N 0 9,1 C 9,2 C 0,0 km/h (0 Bft) 100,00 %
20.10.2019 01:05 22,8 C 9,2 C 52 % 99 % 1012,9 hPa 0,0 l/m 0,0 km/h (0 Bft) N 0 9,1 C 9,2 C 0,0 km/h (0 Bft) 100,00 %
20.10.2019 01:00 22,8 C 9,2 C 52 % 99 % 1013,0 hPa 0,0 l/m 0,0 km/h (0 Bft) N 0 9,1 C 9,2 C 0,0 km/h (0 Bft) 100,00 %
20.10.2019 00:55 22,8 C 9,2 C 52 % 99 % 1012,9 hPa 0,0 l/m 0,0 km/h (0 Bft) N 0 9,1 C 9,2 C 0,0 km/h (0 Bft) 100,00 %
20.10.2019 00:50 22,8 C 9,2 C 52 % 99 % 1012,9 hPa 0,0 l/m 0,0 km/h (0 Bft) N 0 9,1 C 9,2 C 0,0 km/h (0 Bft) 100,00 %
20.10.2019 00:45 22,8 C 9,2 C 52 % 99 % 1013,0 hPa 0,0 l/m 0,0 km/h (0 Bft) O 90 9,1 C 9,2 C 1,6 km/h (1 Bft) 100,00 %
20.10.2019 00:40 22,8 C 9,2 C 52 % 99 % 1013,0 hPa 0,0 l/m 0,0 km/h (0 Bft) N 0 9,1 C 9,2 C 0,0 km/h (0 Bft) 100,00 %
20.10.2019 00:35 22,8 C 9,2 C 52 % 99 % 1012,9 hPa 0,0 l/m 0,0 km/h (0 Bft) O-SO 112 9,1 C 9,2 C 1,6 km/h (1 Bft) 100,00 %
20.10.2019 00:30 22,8 C 9,2 C 52 % 99 % 1013,1 hPa 0,0 l/m 0,0 km/h (0 Bft) N 0 9,1 C 9,2 C 0,0 km/h (0 Bft) 100,00 %
20.10.2019 00:25 22,8 C 9,2 C 52 % 98 % 1013,1 hPa 0,0 l/m 0,0 km/h (0 Bft) N 0 8,9 C 9,2 C 0,0 km/h (0 Bft) 100,00 %
20.10.2019 00:20 22,8 C 9,1 C 52 % 98 % 1013,1 hPa 0,0 l/m 0,0 km/h (0 Bft) N 0 8,8 C 9,1 C 0,0 km/h (0 Bft) 100,00 %
20.10.2019 00:15 22,8 C 9,1 C 52 % 98 % 1013,2 hPa 0,0 l/m 0,0 km/h (0 Bft) N 0 8,8 C 9,1 C 0,0 km/h (0 Bft) 100,00 %
20.10.2019 00:10 22,8 C 9,1 C 52 % 98 % 1013,2 hPa 0,0 l/m 0,0 km/h (0 Bft) N 0 8,8 C 9,1 C 0,0 km/h (0 Bft) 100,00 %
20.10.2019 00:05 22,8 C 9,1 C 52 % 98 % 1013,3 hPa 0,0 l/m 0,0 km/h (0 Bft) N 0 8,8 C 9,1 C 0,0 km/h (0 Bft) 100,00 %
20.10.2019 00:00 22,8 C 9,1 C 52 % 98 % 1013,3 hPa 0,0 l/m 0,0 km/h (0 Bft) N 0 8,8 C 9,1 C 0,0 km/h (0 Bft) 100,00 %
_ Min-Zeit 17:50 07:55 10:50 16:10 04:05 - 00:00 - - 07:55 07:55 00:00 00:00
Minimum _ 22,0 C 8,3 C 50 % 86 % 1012,1 hPa - 0,0 km/h (0 Bft) - - 8,2 C 8,3 C 0,0 km/h (0 Bft) 100,00 %
_ Max-Zeit 16:15 16:10 11:25 08:45 09:40 00:00 10:10 - - 16:10 16:10 14:15 00:00
Maximum _ 23,0 C 14,6 C 53 % 100 % 1014,0 hPa 0,0 l/m 1,6 km/h
O-SO (1 Bft)
- - 12,3 C 14,6 C 8,0 km/h
O-SO (2 Bft)
100,00 %
Durchschnitt _ 22,6 C 10,0 C 52 % 97 % 1013,1 hPa #0,0 l/m 0,0 km/h (0 Bft) O-SO - 9,6 C 10,0 C 1,1 km/h (1 Bft) 100,00 %